Regional Weather Roundup
Issued by NWS

Home | Current Version | Previous Version | Graphics & Text | Print | Product List | Glossary On
Versions: 1 2 3 4 5 6 7 8 9 10 11 12 13 14 15 16 17 18 19 20 21 22 23 24 25 26 27 28 29 30 31 32 33 34 35 36 37 38 39 40 41 42 43 44 45 46 47 48 49 50
000
ASUS43 KOAX 250810
RWRNE

WEATHER ROUNDUP FOR NEBRASKA
NATIONAL WEATHER SERVICE OMAHA NE
300 AM CDT FRI MAY 25 2018

NOTES: SATELLITE DATA IS BEING USED TO AUGMENT CLOUD COVER ABOVE
       12000 FEET.
       "FAIR" INDICATES FEW OR NO CLOUDS BELOW 12,000 FEET WITH NO
       SIGNIFICANT WEATHER AND/OR OBSTRUCTIONS TO VISIBILITY.


NEZ001>004-019>022-054>056-250900-
NEBRASKA PANHANDLE

CITY           SKY/WX    TMP DP  RH WIND       PRES   REMARKS
SCOTTSBLUFF    CLEAR     54  51  90 N8        30.00S
ALLIANCE       CLEAR     50  49  96 NW7       29.98S
CHADRON        CLEAR     55  52  89 CALM      29.94F
GORDON         FAIR      53  49  89 CALM      29.96S
KIMBALL        CLEAR     53  45  73 SW8       30.08R
SIDNEY         CLEAR     55  50  83 W7        30.03F
$$

NEZ057>060-069>072-079>082-250900-
SOUTHWEST NEBRASKA

CITY           SKY/WX    TMP DP  RH WIND       PRES   REMARKS
NORTH PLATTE   CLEAR     62  60  93 SW3       29.95S
IMPERIAL       CLEAR     60  57  89 SE15G22   29.99R
LEXINGTON      CLEAR     65  53  63 W7        29.92F
MCCOOK         CLEAR     62  51  67 SW9       29.96S
OGALLALA       CLEAR     56  52  86 W5        29.97F
$$

NEZ005>010-023>029-035>040-094-250900-
NORTH CENTRAL NEBRASKA

CITY           SKY/WX    TMP DP  RH WIND       PRES   REMARKS
VALENTINE      CLEAR     59  57  93 SW7       29.91S
AINSWORTH      CLEAR     63  59  88 SW3       29.91S
BROKEN BOW     CLEAR     64  60  87 CALM      29.91R
O`NEILL        MOCLDY    68  62  80 S6        29.88S
ORD            CLEAR     61  59  93 CALM      29.87F
THEDFORD       CLEAR     62  59  90 CALM      29.94S
$$

NEZ041-046>049-061>064-073>077-083>087-250900-
SOUTH CENTRAL NEBRASKA

CITY           SKY/WX    TMP DP  RH WIND       PRES   REMARKS
GRAND ISLAND   CLOUDY    69  62  78 CALM      29.89R
AURORA         CLOUDY    66  64  93 SE5       29.88F
HASTINGS       PTCLDY    68  64  87 W5        29.88F
HEBRON         CLOUDY    70  62  77 CALM      29.88S
HOLDREGE       CLOUDY    66  51  57 SW8       29.91S
KEARNEY        PTCLDY    70  51  51 W9        29.90S
YORK           CLOUDY    70  70 100 S12       29.87S
$$

NEZ011>018-030>034-042>045-250900-
NORTHEAST NEBRASKA

CITY           SKY/WX    TMP DP  RH WIND       PRES   REMARKS
NORFOLK        CLOUDY    70  62  76 CALM      29.87S
ALBION         MOCLDY    69  63  79 S5        29.88S
BLAIR          PTCLDY    70  63  77 S9        29.88F
COLUMBUS       CLOUDY    71  64  78 S8        29.87F
FREMONT        CLOUDY    71  62  72 SE6       29.88F
TEKAMAH        PTCLDY    68  63  84 S9        29.87F
WAYNE          CLOUDY    68  67  95 S3        29.86F
$$

NEZ050>053-065>068-078-088>093-250900-
SOUTHEAST NEBRASKA

CITY           SKY/WX    TMP DP  RH WIND       PRES   REMARKS
LINCOLN        CLOUDY    68  62  81 S9        29.88F
OMAHA EPPLEY   MOCLDY    71  63  75 S8        29.88F
BEATRICE       CLOUDY    69  65  88 SE9       29.89S
FALLS CITY     PTCLDY    68  63  84 S8        29.90F
NEBRASKA CITY  PTCLDY    65  65 100 S5        29.90F
PLATTSMOUTH    MOCLDY    67  62  85 SE7       29.90F
$$

NEZ044-045-051>053-067-250900-
OMAHA AREA

CITY           SKY/WX    TMP DP  RH WIND       PRES   REMARKS
OMAHA EPPLEY   MOCLDY    71  63  75 S8        29.88F
BLAIR          PTCLDY    70  63  77 S9        29.88F
FREMONT        CLOUDY    71  62  72 SE6       29.88F
MILLARD        MOCLDY    70  64  80 SE5       29.88F
OFFUTT AFB     PTCLDY    69  62  81 S8        29.88F
PLATTSMOUTH    MOCLDY    67  62  85 SE7       29.90F
WAHOO          FAIR      69  61  76 SE7       29.87F
$$



USA.gov is the U.S. government's official web portal to all federal, state and local government web resources and services.